NOAA 16 DEB, 41503

Orbit data source: Space-Track

NOAA 16 DEB, 41503 is space debris in SSO originally from a launch on Thu, 21 Sep 2000 UTC launched from the Air Force Western Test Range (AFWTR). Debris objects in space refer to the collection of defunct objects orbiting the Earth. Examples of debris include non-operational satellites, rocket bodies, and fragments generated from explosions, collisions, or faulty payload assembly.

Loading next visibility...
NOAA 16 DEB details
Identifier
41503, 2000-055MB
Orbit
SSO
Last TLE update3 days ago
Origin
Flag of USNOAA (US)
ManufacturerUnknown
MissionSpacecraft
Bus & MotorUnknown
MassUnknown
Launch date (UTC)
2000-09-21 (24 years ago)
Launch vehicleUnknown
Launch site
Air Force Western Test Range (AFWTR)
Object type
Payload
Rocket body
Debris
Shape & HBRUnknown
Radar Cross SectionSmall (<0.1 m²)

Expand to show TLE details & history

TLE from 3 days ago
0 NOAA 16 DEB
1 41503U 00055MB  24336.10907677  .00023015  00000-0  68129-2 0  9997
2 41503  98.7634  85.9825 0026495 330.8704  29.1005 14.43159686454153
Epoch: 2024-12-01T02:37Z
Definitive object data (Epoch: 2024-12-01T02:37:04.232Z)
Latitude-0.00013°
Longitude-23.73712°
Altitude734.533 km
Speed7.496 km/s
True Right ascension05h 43m 55s
True Declination0° 00' 00"
Sunlit
Object was in full shadow at TLE epoch
Visualization TLE readout
Latitude-54.22776°
Longitude147.37239°
Altitude767.248 km
Speed7.47 km/s
Apparent Right ascension18h 35m 10s
Apparent Declination-49° 04' 19"
Sunlit
Object is in daylight
Visualization observer readout
Local Sidereal Time07:48:50
Azimuth131.117° SE
Elevation-74.055°
Doppler factor1
Orbital elements
Apogee altitude764.081 km
Perigee altitude726.335 km
Semi-major axis7,123.345 km
Eccentricity0.0026495
Inclination98.7634°
RAAN85.9825°
Arg. of periapsis330.8704°
True anomaly29.24859°
Mean anomaly29.1005°
Eccentric anomaly29.1745°
Mean motion3.61008 °/min
BSTAR0.0068129
Orbital period99.72 mins
Loading maneuver chart data...
Loading historical data...
Loading historical data...
Loading historical data...
Loading historical data...
Loading historical data...
Loading historical data...
Loading historical data...

NOAA 16 DEB Visibility forecast

Observer location: undefined°, undefined

Span
Click to sort rows by Start time (UTC) header in descending order
Start Az.
Max El. time (UTC)
Max El. Az.
Max El.
End time (UTC)
End Az.
6 mins2024-12-04 19:24:28.429Z52.357° ENE2024-12-04 19:27:28.429Z94.382° ESE19.916°2024-12-04 19:30:28.429Z136.246° SSE
8 mins2024-12-04 21:02:28.429Z354.99° N2024-12-04 21:06:28.429Z280.548° WNW34.165°2024-12-04 21:10:28.429Z221.618° SW
6 mins2024-12-05 06:36:28.429Z110.116° ESE2024-12-05 06:39:28.429Z58.281° ENE24.219°2024-12-05 06:42:28.429Z15.519° NNE
7 mins2024-12-05 08:14:28.429Z208.567° SW2024-12-05 08:17:28.429Z261.517° W28.597°2024-12-05 08:21:28.429Z323.672° NNW
|